FW8607 Weather Reports


time (UTC)temp
F
wind
direction
speed
knots
gust
knots
rain 1hr
in
rain 24hr
in
rain mn
in
humidity
%
barometer
mb
20260905180017 83 338 4.3 8.7 0.00 0.00 0.00 34 1014.1
20260905173019 82 315 4.3 7.8 0.00 0.00 0.00 37 1014.0
20260905170019 80 315 3.5 8.7 0.00 0.00 0.00 37 1013.6
20260905163039 79 315 3.5 7.8 0.00 0.00 0.00 40 1013.6
20260905160019 76 0.0 2.6 0.00 0.00 0.00 38 1013.4
20260905153019 73 90 2.6 7.0 0.00 0.00 0.00 40 1013.2
20260905150019 70 90 3.5 6.1 0.00 0.00 0.00 46 1013.2
20260905143019 67 90 2.6 6.1 0.00 0.00 0.00 56 1013.0
20260905140019 66 113 2.6 3.5 0.00 0.00 0.00 54 1012.8
20260905133019 64 90 1.7 3.5 0.00 0.00 0.00 59 1012.4
20260905130039 65 315 0.9 3.5 0.00 0.00 0.00 60 1012.2
20260905123039 66 0.0 0.0 0.00 0.00 0.00 59 1012.3
20260905120019 66 135 0.9 2.6 0.00 0.00 0.00 55 1012.3
20260905113019 64 135 0.9 2.6 0.00 0.00 0.00 63 1012.2
20260905110019 65 113 2.6 5.2 0.00 0.00 0.00 68 1012.2
20260905103039 64 113 2.6 5.2 0.00 0.00 0.00 71 1012.4
20260905100018 65 135 1.7 5.2 0.00 0.00 0.00 65 1012.5
20260905093018 65 135 2.6 5.2 0.00 0.00 0.00 67 1012.7
20260905090019 62 90 3.5 6.1 0.00 0.00 0.00 81 1012.7
20260905083019 63 113 1.7 3.5 0.00 0.00 0.00 88 1013.2
20260905080018 63 113 1.7 2.6 0.00 0.00 0.00 89 1013.4
20260905073018 63 0.0 2.6 0.00 0.00 0.00 88 1013.7
20260905070038 62 113 1.7 5.2 0.00 0.00 0.00 86 1013.3
20260905063038 63 113 3.5 6.1 0.00 0.00 0.00 86 1013.4
20260905060018 64 135 1.7 4.3 0.00 0.00 0.00 86 1013.2
20260905053018 64 0.0 0.0 0.00 0.00 0.00 87 1013.2
20260905050018 64 0.0 0.0 0.00 0.00 0.00 86 1013.0
20260905043018 65 248 1.7 3.5 0.00 0.00 0.00 86 1012.4
20260905040018 66 248 2.6 5.2 0.00 0.00 0.00 83 1012.3
20260905033018 67 270 3.5 6.1 0.00 0.00 0.00 81 1012.1
20260905030018 68 270 4.3 7.0 0.00 0.00 0.00 78 1011.9
20260905023018 70 270 5.2 8.7 0.00 0.00 0.00 72 1011.7
20260905020018 74 248 5.2 8.7 0.00 0.00 0.00 60 1011.8
20260905013018 77 270 5.2 8.7 0.00 0.00 0.00 49 1011.7
20260905010017 78 270 5.2 10.4 0.00 0.00 0.00 48 1011.7
20260905003019 79 248 5.2 10.4 0.00 0.00 0.00 49 1011.7
20260905000019 80 248 5.2 11.3 0.00 0.00 0.00 50 1012.0
20260904233019 80 248 6.1 11.3 0.00 0.00 0.00 52 1011.9
20260904230039 79 248 7.8 14.8 0.00 0.00 0.00 54 1011.9
20260904223019 78 248 9.6 15.6 0.00 0.00 0.00 57 1012.2
20260904220019 79 248 8.7 15.6 0.00 0.00 0.00 57 1012.3
20260904213019 80 248 9.6 16.5 0.00 0.00 0.00 55 1012.4
20260904210019 80 248 8.7 15.6 0.00 0.00 0.00 54 1012.3
20260904203019 81 248 7.8 14.8 0.00 0.00 0.00 52 1012.7
20260904200019 81 248 7.0 13.0 0.00 0.00 0.00 52 1012.6
20260904193019 80 248 6.1 11.3 0.00 0.00 0.00 53 1013.0
20260904190018 79 248 6.1 13.0 0.00 0.00 0.00 53 1013.2
20260904183018 77 248 5.2 10.4 0.00 0.00 0.00 55 1013.5